User: anonymous   Login
Location: Sungai Laei
(2.6000°N, 113.7167°E)
Time: 08:19:23
(UTC+00:00)
Language:

CZ-2C R/B - Orbit

View from above orbital plane
View from above orbital plane
View from above satellite
View from above satellite

Ground track
Ground track

The orbit data is extracted from the following two-line orbital elements,

1 28480U 04046B   22228.89208414  .00000091  00000-0  49201-4 0  9998
2 28480  98.0686 211.8899 0142646  43.5877 317.6471 14.25847358923051
Epoch (UTC): 16 August 2022 21:24:36
Eccentricity: 0.0142646
inclination: 98.0686°
perigee height: 703 km
apogee height: 908 km
right ascension of ascending node: 211.8899°
argument of perigee: 43.5877°
revolutions per day: 14.25847358
mean anomaly at epoch: 317.6471°
orbit number at epoch: 92305

The dashed part of the orbit path shows where the satellite is in the earth's shadow,  

DLR